This is the latest recevied weather packets stored in our database for station/object KV4OP. If no packets are shown the sender has not sent any weather packets the latest 10 day(s).
| Time | Temp. | Humidity | Pressure | Rain* | Wind** | Luminosity | Snow |
|---|---|---|---|---|---|---|---|
| 1778177739 | 34.44° C | 41% | 1015 hPa | 0 mm | - | - | - |
| 1778177499 | 33.89° C | 47% | 1015 hPa | 0 mm | - | - | - |
| 1778177138 | 33.89° C | 44% | 1015.2 hPa | 0 mm | - | - | - |
| 1778176837 | 33.89° C | 46% | 1015.3 hPa | 0 mm | - | - | - |
| 1778176537 | 33.33° C | 47% | 1015.4 hPa | 0 mm | - | - | - |
| 1778176237 | 33.89° C | 45% | 1015.4 hPa | 0 mm | - | - | - |
| 1778175936 | 34.44° C | 44% | 1015.5 hPa | 0 mm | - | - | - |
| 1778175637 | 33.89° C | 45% | 1015.5 hPa | 0 mm | - | - | - |
| 1778175334 | 33.33° C | 45% | 1015.5 hPa | 0 mm | - | - | - |
| 1778175042 | 33.33° C | 46% | 1015.6 hPa | 0 mm | - | - | - |
| 1778174735 | 33.33° C | 47% | 1015.6 hPa | 0 mm | - | - | - |
| 1778174433 | 33.33° C | 46% | 1015.6 hPa | 0 mm | - | - | - |
| 1778174131 | 32.78° C | 46% | 1015.4 hPa | 0 mm | - | - | - |
| 1778173832 | 32.78° C | 47% | 1015.4 hPa | 0 mm | - | - | - |
| 1778173531 | 32.78° C | 44% | 1015.5 hPa | 0 mm | - | - | - |
| 1778173231 | 32.78° C | 46% | 1015.4 hPa | 0 mm | - | - | - |
| 1778172931 | 33.33° C | 46% | 1015.5 hPa | 0 mm | - | - | - |
| 1778172629 | 32.78° C | 45% | 1015.6 hPa | 0 mm | - | - | - |
| 1778172328 | 32.78° C | 46% | 1015.5 hPa | 0 mm | - | - | - |
| 1778172028 | 32.78° C | 48% | 1015.7 hPa | 0 mm | - | - | - |
| 1778171728 | 32.22° C | 47% | 1015.7 hPa | 0 mm | - | - | - |
| 1778171425 | 32.22° C | 49% | 1015.8 hPa | 0 mm | - | - | - |
| 1778171124 | 32.22° C | 49% | 1015.9 hPa | 0 mm | - | - | - |
| 1778170824 | 31.67° C | 52% | 1016 hPa | 0 mm | - | - | - |
| 1778170524 | 31.67° C | 50% | 1016.1 hPa | 0 mm | - | - | - |
* Rain latest hour (hover to see other rain measurements)
** Current wind speed in m/s (hover to see current wind gust speed)